Location: Gönnheim
(49.4488°N, 8.2383°E)
Time: 07:30:47
(UTC+00:00)

Cosmos 2360 Rocket - Pass Details

Date: 19 May 2025
Orbit: 834 x 842 km, 71.0° (Epoch: 22 June)

Event Time Altitude Azimuth Distance (km) Brightness Sun altitude
Rises 21:25:10 0° 334° (NNW) 3,394 7.2 -15.8°
Reaches altitude 10° 21:28:12 10° 350° (N) 2,457 5.8 -16.0°
Maximum altitude 21:32:30 22° 40° (NE) 1,764 4.1 -16.3°
Drops below altitude 10° 21:36:47 10° 90° (E) 2,449 4.4 -16.6°
Enters shadow 21:37:52 - 97° (E) 2,765 4.6 -16.7°
